TimeCST,TemperatureF,Dew PointF,Humidity,Sea Level PressureIn,VisibilityMPH,Wind Direction,Wind SpeedMPH,Gust SpeedMPH,PrecipitationIn,Events,Conditions,WindDirDegrees,DateUTC
12:53 AM,37.9,32.0,79,30.23,7.0,South,6.9,-,N/A,,Overcast,180,2013-01-09 06:53:00
1:53 AM,39.0,32.0,76,30.25,8.0,SW,3.5,-,N/A,,Overcast,230,2013-01-09 07:53:00
2:53 AM,37.9,33.1,83,30.27,5.0,West,5.8,-,0.00,Rain,Light Rain,260,2013-01-09 08:53:00
3:23 AM,39.2,33.8,81,30.27,2.5,WSW,5.8,-,0.05,Rain,Rain,250,2013-01-09 09:23:00
3:43 AM,39.2,35.6,87,30.27,4.0,WSW,9.2,-,0.09,Rain,Light Rain,240,2013-01-09 09:43:00
3:53 AM,39.0,36.0,89,30.28,5.0,SW,10.4,-,0.09,Rain,Light Rain,230,2013-01-09 09:53:00
4:10 AM,39.2,37.4,93,30.27,5.0,WSW,11.5,-,0.01,Rain,Light Rain,240,2013-01-09 10:10:00
4:53 AM,39.9,-9999,N/A,30.30,6.0,WSW,9.2,-,0.01,Rain,Light Rain,240,2013-01-09 10:53:00
5:31 AM,39.2,-9999,N/A,30.30,2.5,WSW,8.1,-,0.03,Rain,Light Rain,240,2013-01-09 11:31:00
5:53 AM,37.9,-9999,N/A,30.32,1.8,SW,4.6,-,0.08,Rain,Rain,220,2013-01-09 11:53:00
6:07 AM,37.4,-9999,N/A,30.30,0.5,South,8.1,-,0.01,Rain,Light Rain,190,2013-01-09 12:07:00
6:53 AM,37.0,-9999,N/A,30.33,0.2,South,5.8,-,0.02,Fog,Fog,190,2013-01-09 12:53:00
7:53 AM,37.0,-9999,N/A,30.37,0.2,SW,3.5,-,N/A,Fog,Fog,220,2013-01-09 13:53:00
8:24 AM,37.4,-9999,N/A,30.37,0.2,SW,4.6,-,N/A,Fog,Fog,230,2013-01-09 14:24:00
8:40 AM,39.2,-9999,N/A,30.38,0.2,Calm,Calm,-,N/A,Fog,Fog,0,2013-01-09 14:40:00
8:53 AM,39.9,-9999,N/A,30.39,0.2,Calm,Calm,-,N/A,Fog,Fog,0,2013-01-09 14:53:00
9:53 AM,39.0,-9999,N/A,30.41,1.2,South,5.8,-,N/A,,Partly Cloudy,190,2013-01-09 15:53:00
10:00 AM,39.2,-9999,N/A,30.40,3.0,SSW,4.6,-,N/A,,Clear,200,2013-01-09 16:00:00
10:53 AM,46.9,-9999,N/A,30.40,7.0,West,4.6,-,N/A,,Clear,280,2013-01-09 16:53:00
11:53 AM,48.0,42.1,80,30.39,6.0,WNW,8.1,-,N/A,,Haze,290,2013-01-09 17:53:00
12:53 PM,48.0,39.9,74,30.40,8.0,WNW,9.2,-,N/A,,Clear,290,2013-01-09 18:53:00
1:53 PM,50.0,41.0,71,30.40,7.0,SW,3.5,-,N/A,,Clear,220,2013-01-09 19:53:00
2:53 PM,46.9,39.9,77,30.42,6.0,Calm,Calm,-,N/A,,Haze,0,2013-01-09 20:53:00
4:53 PM,42.1,37.9,85,30.46,5.0,Calm,Calm,-,N/A,,Clear,0,2013-01-09 22:53:00
5:53 PM,36.0,33.1,89,30.47,5.0,NE,4.6,-,N/A,,Clear,40,2013-01-09 23:53:00
6:53 PM,35.1,32.0,89,30.49,7.0,Calm,Calm,-,N/A,,Clear,0,2013-01-10 00:53:00
7:53 PM,36.0,32.0,86,30.51,8.0,Calm,Calm,-,N/A,,Clear,0,2013-01-10 01:53:00
8:53 PM,32.0,30.0,92,30.51,5.0,NE,5.8,-,N/A,,Clear,40,2013-01-10 02:53:00
9:53 PM,33.1,30.0,89,30.51,8.0,ENE,4.6,-,N/A,,Clear,60,2013-01-10 03:53:00
10:53 PM,35.1,32.0,89,30.53,6.0,Calm,Calm,-,N/A,,Clear,0,2013-01-10 04:53:00
11:53 PM,33.1,30.9,92,30.51,6.0,NNE,5.8,-,N/A,,Clear,30,2013-01-10 05:53:00